Location: Amalienhof
(52.5193°N, 13.1603°E)
Time: 14:03:03
(UTC+00:00)

Daily predictions for brighter satellites

Satellite Brightness Start Highest point End
(mag) Time Altitude Azimuth Time Altitude Azimuth Time Altitude Azimuth
Cosmos 1703 3.2 20:18:16 10° S 20:22:08 81° E 20:26:03 10° NNE
NOSS 3-4 (A) 4.4 20:16:26 10° NW 20:22:59 54° NNE 20:30:15 10° ESE
Cosmos 1844 4.0 20:17:19 10° NW 20:23:04 66° WSW 20:28:44 10° SSE
NOSS 3-4 (C) 4.4 20:16:32 10° NW 20:23:05 54° NNE 20:30:21 10° ESE
COSMOS 2428 3.5 20:18:24 10° SSE 20:23:18 31° ESE 20:28:16 10° NE
Cosmos 2322 3.9 20:21:33 10° S 20:27:05 52° ESE 20:32:37 10° NE
Meteor 1-27 4.4 20:23:54 10° N 20:29:36 66° ENE 20:35:22 10° SSE
Cosmos 1869 4.4 20:26:27 10° N 20:30:03 32° ENE 20:33:40 10° SE
Cosmos 783 Rocket 4.5 20:27:58 10° SSW 20:33:12 79° ESE 20:38:27 10° NNE
Cosmos 1709 Rocket 4.1 20:27:31 10° S 20:33:48 79° E 20:40:13 10° NNE
NOSS 3-3 (A) 4.5 20:30:15 10° S 20:35:36 37° ESE 20:41:35 10° NE
Terra 2.0 20:31:59 10° SSE 20:36:41 65° ENE 20:41:26 10° N
Cosmos 2237 Rocket 3.8 20:33:36 10° SE 20:37:16 18° E 20:40:57 10° ENE
CARTOSAT-1 3.6 20:33:31 10° SSE 20:37:51 85° WSW 20:42:12 10° NNW
Cosmos 2333 4.3 20:33:18 10° SSW 20:38:51 60° ESE 20:44:28 10° NE
Cosmos 2219 Rocket 2.6 20:34:01 10° S 20:39:16 44° ESE 20:44:35 10° NE
Cosmos 2360 Rocket 2.4 20:35:29 10° SW 20:41:10 80° WNW 20:46:52 10° NNE
Cosmos 1538 Rocket 4.4 20:37:03 10° S 20:42:07 45° ESE 20:47:11 10° NE
Cosmos 2333 Rocket 2.4 20:43:30 10° S 20:49:01 55° ESE 20:54:38 10° NE
Cosmos 1315 Rocket 2.9 20:46:04 10° NNW 20:50:11 88° ENE 20:54:13 11° SSE
ATLAS 2AS CENTAUR R/B 3.3 20:43:19 10° NW 20:51:04 65° NE 20:58:10 10° ESE
Resurs 01 Rocket 4.1 20:50:23 10° SW 20:53:21 17° W 20:56:19 10° NW
Cosmos-2242 4.3 20:49:28 10° NNW 20:53:31 38° W 20:57:33 10° SSW
Cosmos 1818 3.8 20:51:02 10° SW 20:56:29 80° NW 21:01:59 10° NE
Cosmos 2221 2.7 20:54:16 10° N 20:58:39 63° ENE 21:02:29 13° SSE
Cosmos 773 Rocket 4.0 20:53:45 10° SSW 20:59:03 85° ESE 21:04:24 10° NNE
SL-16 R/B 4.0 20:55:15 10° WSW 21:00:27 36° NW 21:05:41 10° NNE
GEOS 3 Rocket 3.7 20:56:28 10° NE 21:01:54 85° SE 21:07:19 10° SW
ERS-1 Rocket 3.6 20:57:28 10° S 21:02:24 54° W 21:07:21 10° NNW
USA 215 3.4 20:58:49 10° ENE 21:05:14 53° SE 21:11:36 10° SW
Cosmos 2278 Rocket 2.3 21:02:24 10° NNW 21:08:07 84° ENE 21:13:09 14° SSE
Cosmos 1892 3.6 21:07:02 14° SSE 21:09:42 33° E 21:13:09 10° NNE
Cosmos 1844 Rocket 4.3 21:07:55 10° NW 21:12:24 25° WSW 21:16:53 10° SSW
ATLAS 5 CENTAUR R/B 1.9 21:08:50 10° SW 21:13:06 72° NW 21:18:00 10° NE
Aureole 2 Rocket 4.3 21:12:40 10° N 21:14:35 17° NE 21:16:32 10° E
Cosmos 1943 Rocket 4.0 21:11:08 10° NNW 21:15:50 25° NE 21:20:31 10° E
SPOT 5 3.8 21:14:22 10° S 21:19:10 44° W 21:23:45 10° NNW
Lacrosse 5 rocket 2.6 21:17:22 10° WNW 21:21:24 43° N 21:25:12 10° ENE
SL-16 R/B 4.0 21:18:56 11° SE 21:21:41 15° E 21:24:46 10° ENE
Cosmos 2056 Rocket 4.2 21:17:37 10° NNW 21:22:54 51° ENE 21:27:39 13° SE
Nadezhda 3 Rocket 4.2 21:17:28 10° N 21:23:51 67° ENE 21:29:11 15° SSE
Spot 4 4.3 21:20:00 14° SE 21:23:54 50° ENE 21:28:32 10° N
Cosmos 2058 3.2 21:25:00 16° SSE 21:28:09 53° E 21:32:13 10° NNE
Cosmos 2154 Rocket 4.3 21:23:04 14° SSE 21:28:18 54° E 21:34:21 10° NNE
Cosmos 1408 3.4 21:29:06 18° SSE 21:31:10 34° E 21:34:27 10° NNE
Meteor 2-17 Rocket 4.4 21:27:25 12° S 21:33:03 73° E 21:39:06 10° NNE
In-Cosmos 22 Rocket 4.1 21:29:55 13° S 21:34:35 68° E 21:39:54 10° NNE
TSX-5 3.9 21:31:31 10° NW 21:34:52 56° WSW 21:37:36 18° SSE
Cosmos 2074 Rocket 4.0 21:29:22 10° S 21:35:36 89° E 21:41:52 10° N
Cosmos 1076 Rocket 3.6 21:36:09 17° S 21:39:22 62° E 21:43:36 10° NNE
USA 267 3.4 21:34:04 13° SE 21:39:50 59° SW 21:46:20 10° WNW
Cosmos 1680 Rocket 3.9 21:35:42 15° S 21:39:54 48° ESE 21:45:01 10° NE
CZ-4C R/B 3.9 21:38:15 10° NW 21:44:25 42° NNE 21:51:41 10° E
JB-3 4.4 21:42:41 10° N 21:46:34 74° WNW 21:49:57 13° SSW
COSMOS 2455 3.8 21:42:26 10° NW 21:48:13 44° NE 21:54:00 10° ESE
EO 1 Delta rocket 4.5 21:43:29 10° NNE 21:48:22 55° E 21:52:50 17° S
Cosmos 2151 3.8 21:47:18 19° SSE 21:49:52 37° E 21:53:49 10° NNE
MTI 4.3 21:47:31 10° N 21:50:33 53° WNW 21:53:10 13° SSW
ATLAS CENTAUR R/B 3.2 21:54:15 10° WNW 21:56:37 16° WSW 21:58:26 12° SSW
Cosmos 923 Rocket 4.0 21:52:19 11° SSW 21:57:22 80° ESE 22:02:43 10° NNE
Cosmos 2327 Rocket 4.5 21:52:14 13° S 21:57:48 90° WNW 22:03:58 10° N
Cosmos 1933 4.4 21:56:04 10° N 21:59:48 35° ENE 22:02:24 17° SE
Cosmos 1825 2.5 21:58:08 22° SSE 22:00:16 49° E 22:03:57 10° NNE
Cosmos 1151 Rocket 3.9 21:56:12 10° N 22:00:20 40° ENE 22:03:13 17° SE
Cosmos 2369 Rocket 3.6 21:55:23 10° NNW 22:00:25 32° NE 22:05:25 10° ESE
ALOS 2 3.0 21:58:03 18° SE 22:01:06 55° ENE 22:05:24 10° N
Cosmos 1980 3.7 21:56:55 11° SSW 22:02:15 70° ESE 22:07:54 10° NE
APEX 4.2 22:00:43 10° NNW 22:03:08 26° NE 22:05:07 13° ESE
Cosmos 967 Rocket 4.5 21:58:07 10° SSW 22:04:35 79° SE 22:11:05 10° NE
Cosmos 44 4.3 22:05:15 20° SE 22:06:40 24° ESE 22:10:12 10° ENE
COSMOS 2428 3.3 22:01:44 10° SW 22:07:19 58° NW 22:12:57 10° NNE
Cosmos 371 Rocket 3.8 22:03:13 10° NNW 22:08:02 54° ENE 22:11:47 16° SE
GP-B 3.7 22:04:25 10° NNE 22:08:42 45° E 22:11:24 21° SSE
Cosmos 1295 Rocket 4.4 22:06:31 16° S 22:11:29 84° E 22:17:38 10° NNE
Cosmos 1624 Rocket 4.1 22:08:11 10° NNW 22:13:26 73° WSW 22:16:57 21° SSE
NOSS 3-4 (A) 4.0 22:07:23 10° NW 22:14:08 58° SW 22:19:46 18° SSE
NOSS 3-4 (C) 4.0 22:07:29 10° NW 22:14:15 59° SW 22:19:55 18° SSE
NOSS 0 Rocket 3.9 22:08:31 10° SSW 22:14:41 88° NW 22:20:55 10° NNE
Terra 3.8 22:11:22 10° SW 22:14:53 20° W 22:18:25 10° NW
SL-4 R/B 1.9 22:19:54 24° E 22:20:18 26° ENE 22:22:08 10° N
Cosmos 2237 Rocket 2.2 22:14:58 11° SSW 22:20:32 86° ESE 22:26:17 10° NNE
Cosmos 1782 4.4 22:17:28 10° N 22:20:54 27° ENE 22:23:34 14° ESE
Genesis I 3.3 22:18:36 20° SSW 22:21:06 55° SE 22:24:56 10° NE
CREW DRAGON DEMO-1 DEB 4.2 22:22:53 23° ESE 22:22:53 23° ESE 22:24:41 10° E
Cosmos 2344 3.7 22:16:01 10° SSW 22:23:16 59° SE 22:31:17 10° NE
Cosmos 2219 Rocket 3.4 22:17:57 10° WSW 22:23:17 43° NW 22:28:39 10° NNE
NOSS 3-3 (A) 4.5 22:20:06 10° WSW 22:26:09 66° NW 22:33:05 10° NE
NOSS 3-3 (C) 4.5 22:20:12 10° WSW 22:26:15 67° NW 22:33:13 10° NE
Thor Agena Rocket 3.6 22:24:00 10° NNE 22:29:09 75° WNW 22:33:18 15° SSW
Cosmos 1346 Rocket 4.3 22:28:04 17° SE 22:29:51 24° E 22:33:01 10° NE
Cosmos 2333 Rocket 3.7 22:28:17 10° WSW 22:33:34 37° NW 22:38:54 10° NNE
RESURS DK-1 4.0 22:35:06 10° NNW 22:38:49 31° NE 22:42:32 10° ESE
Cosmos 1515 Rocket 3.9 22:36:16 10° N 22:40:34 57° ENE 22:43:15 22° SSE
BREEZE-M DEB (TANK) 2.5 22:38:37 10° W 22:41:22 26° SW 22:41:22 26° SW
ATLAS 2AS CENTAUR R/B 3.3 22:34:45 10° NW 22:41:52 45° WSW 22:46:25 20° S
EO 1 Del DPAF 3.9 22:38:38 10° N 22:42:18 51° WNW 22:44:59 17° SW
Cosmos 1766 Rocket 3.5 22:44:24 24° S 22:47:02 88° E 22:51:29 10° NNE
Cosmos 1328 Rocket 3.5 22:43:39 10° NNW 22:47:59 78° W 22:50:25 25° S
Aureole 2 Rocket 2.9 22:45:41 10° NW 22:48:17 34° WSW 22:48:59 29° SW
USA 215 3.4 22:41:55 10° ENE 22:48:30 78° NNW 22:55:03 10° WSW
Gbstr 26 Del rocket 4.1 22:49:28 21° SE 22:49:28 21° SE 22:52:29 10° E
Okean 3 Rocket 3.6 22:47:03 22° SSW 22:49:52 78° W 22:54:20 10° N
Cosmos 1606 3.1 22:46:30 10° NNW 22:50:19 55° W 22:52:19 25° SSW
Cosmos 2278 Rocket 3.9 22:47:29 10° NW 22:51:32 20° W 22:54:59 12° SW
Cosmos 2297 4.0 22:47:58 10° NW 22:53:36 57° WSW 22:57:11 22° S
Cosmos 304 Rocket 4.0 22:49:40 10° NNW 22:54:30 67° ENE 22:58:04 18° SE
Cosmos 2218 Rocket 4.0 22:50:54 21° S 22:55:25 82° E 23:01:45 10° NNE
Cosmos 2228 Rocket 3.8 22:51:45 10° N 22:56:13 48° ENE 22:59:19 19° SE
Cosmos 1420 Rocket 4.2 22:52:10 10° NNW 22:57:22 60° WSW 23:00:36 23° S
ATLAS 5 CENTAUR R/B 4.0 22:54:35 10° WNW 22:58:33 28° NNW 23:03:03 10° NE
Cosmos 1943 Rocket 2.2 22:54:39 10° NNW 23:00:23 89° ENE 23:04:40 18° SSE
Lacrosse 5 rocket 1.4 22:56:53 10° WNW 23:00:57 73° NNE 23:04:46 10° ESE
Cosmos 2366 rocket 4.0 22:56:35 21° S 23:01:06 85° E 23:07:30 10° NNE
Landsat 4 4.4 22:58:38 10° NNE 23:02:16 42° E 23:03:59 25° SSE
Cosmos 1633 3.1 23:01:11 27° SSE 23:02:47 45° E 23:06:16 10° NNE
SL-16 R/B 2.2 23:00:47 20° SSW 23:04:51 76° ESE 23:10:33 10° NNE
Cosmos 1959 Rocket 4.5 23:06:20 20° SSW 23:10:44 82° WNW 23:17:00 10° N
YAOGAN 11 4.1 23:09:09 25° S 23:11:41 79° WSW 23:16:09 10° NNW
Cosmos 1743 Rocket 3.8 23:12:36 25° SSE 23:14:57 56° E 23:19:14 10° NNE
Cosmos 332 Rocket 4.0 23:14:03 10° NNW 23:18:46 57° WSW 23:21:28 24° S
Cosmos 1331 Rocket 4.4 23:13:43 10° NNW 23:19:01 63° ENE 23:23:39 13° SE
Cosmos 1048 Rocket 4.4 23:19:32 23° S 23:22:40 51° ESE 23:27:46 10° NNE
Meteor 2-3 Rocket 3.8 23:21:02 21° SSW 23:24:56 81° WNW 23:30:42 10° NNE
Helios 1A 3.5 23:24:53 25° SSW 23:26:59 45° W 23:31:02 10° NNW
Cosmos 405 3.0 23:24:02 10° NNW 23:27:34 65° W 23:29:07 30° S
Meteor 1-10 Rocket 4.4 23:25:58 10° N 23:31:34 69° ENE 23:35:50 17° SSE
Cosmos 1452 Rocket 4.0 23:27:04 10° NW 23:32:06 47° WSW 23:35:06 23° SSW
CZ-4C R/B 2.9 23:26:47 10° NW 23:33:45 89° SW 23:41:55 10° SE
Meteor 2-6 Rocket 4.2 23:28:29 10° NNW 23:34:02 84° ENE 23:37:54 20° SSE
PSLV R/B 3.7 23:30:00 10° NNE 23:34:11 61° ESE 23:36:34 25° S
Cosmos 389 Rocket 4.2 23:31:10 10° N 23:34:16 28° ENE 23:37:05 11° SE
COSMOS 2455 3.1 23:28:29 10° NW 23:34:22 54° WSW 23:38:24 20° S
Cosmos 1825 4.5 23:33:26 10° WSW 23:36:04 18° WNW 23:38:45 10° NNW
Cosmos 1110 Rocket 4.0 23:30:52 10° NNW 23:36:11 89° E 23:40:16 17° SSE
Cosmos 1340 3.4 23:34:23 21° SW 23:36:34 45° WNW 23:40:13 10° N
Cosmos 1151 Rocket 4.5 23:34:06 10° NNW 23:37:43 26° W 23:40:03 17° SW
ALOS 2 4.3 23:35:27 14° SW 23:37:46 21° W 23:41:07 10° NW
Cosmos 1408 Rocket 4.1 23:35:56 20° SW 23:38:44 50° WNW 23:43:03 10° N
SL-16 R/B 3.6 23:33:13 10° SE 23:39:00 42° ENE 23:44:50 10° N
Cosmos 1603 4.3 23:36:25 21° S 23:39:53 45° ESE 23:45:19 10° NE
Cosmos 1727 Rocket 4.4 23:37:49 10° NNW 23:43:49 52° W 23:48:04 20° SSW
APEX 4.2 23:42:25 10° WNW 23:44:22 18° WSW 23:44:22 18° WSW
Resurs 1-4 Rocket 3.9 23:40:20 10° NE 23:44:26 22° E 23:48:29 10° SE
Cosmos 2369 Rocket 2.2 23:39:18 10° NW 23:44:51 64° WSW 23:48:49 19° SSE
Cosmos 1500 Rocket 3.6 23:44:49 24° SSW 23:47:27 76° WNW 23:51:52 10° N
Cosmos 44 3.4 23:43:37 13° WSW 23:47:30 63° NW 23:51:59 10° NE
SeaSat 1 4.0 23:44:26 10° NE 23:48:25 24° ESE 23:51:20 15° SSE
ISS -1.6 23:51:01 13° SE 23:51:01 13° SE 23:52:20 10° ESE
Helios 1B rocket 2.4 23:48:50 10° NNE 23:53:00 78° ESE 23:55:23 24° S
